[[{"header":{"parameterUnit":"m.s-1","parameterCategory":1,"la1":30.2991,"la2":30.254,"lo1":-89.0895,"lo2":-89.0444,"dx":0.0017,"dy":0.0017,"nx":28,"ny":28,"refTime":"2022-12-29T15:00:00:Z","depth":0,"parameterNumber":2,"parameterNumberName":"U-component_of_WINDS"},"data":[0,0,0,0,0,0,0,0,0,0,0,0,0,0,0,0,0,0,0,0,0,0,0,0,0,0,0,0,0,0,0,0,0,0,0,0,0,0,0,0,0,0,0,0,0,0,0,0,0,0,0,0,0,0,0,0,0,0,-3.9942,-3.9942,0,-3.9957,-3.9957,-3.9957,-3.9885,-3.9883,-3.9881,-3.9879,-3.9892,-3.9894,-3.9897,0,0,0,0,0,0,0,0,0,0,0,0,0,-3.9848,-3.985,-3.9942,-3.9942,-3.9942,-3.9957,-3.9957,-3.9957,-3.9885,-3.9883,-3.988,-3.9878,-3.9891,-3.9894,-3.9897,0,0,0,0,0,0,0,0,0,0,0,0,0,-3.9879,-3.9851,-3.9942,-3.9908,-3.9905,-3.9957,-3.9957,-3.9957,-3.9886,-3.9882,-3.9879,-3.9876,-3.9891,-3.9894,-3.9897,-3.9982,0,0,-3.9908,-3.9909,0,0,0,0,0,0,0,0,-3.9877,-3.9882,-3.9913,-3.991,-3.9907,-3.9916,-3.9929,-3.9965,-3.9886,-3.9893,-3.9879,-3.9875,-3.9902,-3.9905,-3.9914,-3.9982,-3.9983,-3.9908,-3.991,-3.9912,-3.9913,0,0,0,0,0,0,0,-3.9875,-3.9881,-3.9947,-3.9913,-3.991,-3.9891,-3.9892,-3.9936,-3.9915,-3.9892,-3.9887,-3.989,-3.99,-3.9911,-3.9914,-3.9983,-3.9908,-3.9911,-3.9913,-3.9915,-4.012,-4.0124,0,0,0,0,0,0,-3.9878,-3.988,-3.9947,-3.9948,-3.9884,-3.9896,-3.9896,-3.9916,-3.9914,-3.9911,-3.9892,-3.9886,-3.9907,-3.991,-3.9914,-4.0012,-3.9912,-3.9915,-3.9917,-4.0117,-4.0121,-4.0125,0,0,0,0,0,0,-3.9876,-3.9884,-3.9946,-3.9912,-3.9919,-3.9901,-3.9923,-3.9918,-3.9929,-3.9915,-3.991,-3.9908,-3.9905,-3.991,-3.9965,-4.0012,-3.9917,-3.992,-4.0113,-4.0118,-4.0123,-4.021,0,0,0,0,0,0,-3.9873,-3.9884,-3.9916,-3.9914,-3.9921,-3.9998,-3.9926,-3.9921,-3.9935,-3.9927,-3.9928,-3.9925,-3.9902,-3.9961,-3.9969,-4.0015,-3.9923,-4.0109,-4.0115,-4.0121,-4.0202,-4.0217,-4.0229,0,0,0,0,0,-3.987,-3.994,-3.9918,-3.9927,-3.9961,-4.0001,-4.0005,-3.9978,-3.9939,-3.9971,-3.9962,-3.9925,-4.0006,-3.9967,-3.9976,-4.0023,-4.0106,-4.0113,-4.0121,-4.0196,-4.0214,-4.0229,0,0,0,0,0,0,-3.9947,-3.9939,-3.9915,-3.9986,-3.9995,-3.9989,-4.0028,-3.9998,-4.0018,-4.001,-3.9975,-3.9976,-4.0038,-4.0036,-3.9993,-4.0105,-4.0049,-4.0059,-4.0103,-4.012,-4.0133,-4.0132,-3.9925,0,0,0,0,0,-3.9973,-4.0007,-3.9997,-4.006,-4.0066,-4.0047,-4.0063,-4.0042,-4.0049,-4.0053,-4.0047,-4.0056,-4.0083,-4.0102,-4.0126,-4.0202,-4.0201,-4.0239,-4.0253,-4.0264,-4.0272,-4.0312,-4.0329,-4.015,-4.015,-4.015,0,0,-4.0025,-4.0025,-4.0048,-4.0076,-4.008,-4.0115,-4.005,-4.009,-4.0115,-4.0058,-4.0111,-4.0108,-4.0115,-4.0181,-4.021,-4.0182,-4.0322,-4.0274,-4.0283,-4.0285,-4.0322,-4.0339,-4.0354,-4.0155,-4.0154,-4.0153,0,0,-4.0138,-4.0142,-4.0195,-4.0201,-4.0209,-4.0195,-4.0208,-4.0207,-4.0203,-4.0255,-4.0213,-4.0243,-4.0291,-4.0297,-4.0307,-4.0423,-4.0389,-4.0432,-4.0502,-4.0541,-4.0555,-4.0568,-4.0608,-4.0623,-4.0441,-4.0441,-4.0441,0,-4.0202,-4.0254,-4.0225,-4.0268,-4.0281,-4.0233,-4.0286,-4.0293,-4.0308,-4.0318,-4.0286,-4.0345,-4.0346,-4.0414,-4.0442,-4.0452,-4.0465,-4.0431,-4.0556,-4.0568,-4.0579,-4.0617,-4.0633,-4.0446,-4.0446,-4.0445,-4.0445,0,-4.0331,-4.0368,-4.0409,-4.0426,-4.0444,-4.0492,-4.047,-4.0492,-4.047,-4.046,-4.0513,-4.0514,-4.0537,-4.0552,-4.053,-4.0616,-4.0598,-4.0562,-4.0504,-4.0602,-4.0637,-4.0652,-4.0454,-4.0452,-4.045,-4.0449,0,0,-4.0492,-4.0493,-4.0509,-4.0516,-4.0522,-4.0549,-4.0594,-4.0618,-4.0636,-4.0649,-4.0685,-4.0728,-4.0694,-4.0705,-4.0684,-4.0719,-4.081,-4.0678,-4.0678,-4.0702,-4.0904,-4.093,-4.0947,-4.0788,-4.0791,-4.0793,-4.0903,0,-4.0602,-4.068,-4.0656,-4.0734,-4.0767,-4.0722,-4.0761,-4.0769,-4.0761,-4.0787,-4.0778,-4.0808,-4.0762,-4.0769,-4.0801,-4.0792,-4.085,-4.0784,-4.0821,-4.0822,-4.0819,-4.0966,-4.0994,-4.1097,-4.0916,-4.0919,-4.0921,0,-4.074,-4.0759,-4.0841,-4.0841,-4.0854,-4.089,-4.0909,-4.0936,-4.0943,-4.0935,-4.0948,-4.0919,-4.0963,-4.0907,-4.0967,-4.0922,-4.0936,-4.0934,-4.0938,-4.0939,-4.0876,-4.097,-4.113,-4.1145,-4.0942,-4.0941,-4.0939,0,-4.0848,-4.0894,-4.0948,-4.0956,-4.0958,-4.0984,-4.0986,-4.099,-4.1006,-4.1023,-4.1033,-4.1055,-4.1067,-4.1084,-4.1062,-4.1024,-4.1125,-4.1067,-4.1118,-4.1119,-4.114,-4.1139,-4.1303,-4.1152,-4.1151,-4.1151,-4.1151,0,-4.0972,-4.1024,-4.0997,-4.103,-4.1087,-4.1059,-4.1115,-4.1112,-4.1116,-4.1148,-4.111,-4.1141,-4.1111,-4.1138,-4.1122,-4.1173,-4.1179,-4.1173,-4.1167,-4.1175,-4.1176,-4.1183,-4.1174,-4.1155,-4.1154,-4.1153,-4.1153,0,-4.1102,-4.1086,-4.1142,-4.114,-4.114,-4.1182,-4.1179,-4.121,-4.12,-4.124,-4.1248,-4.1232,-4.1262,-4.1243,-4.1273,-4.1262,-4.1329,-4.1314,-4.1326,-4.1322,-4.1374,-4.1369,-4.1547,-4.1568,-4.1405,-4.1406,-4.1408,0,-4.1181,-4.122,-4.1222,-4.1241,-4.1246,-4.1276,-4.1292,-4.1267,-4.1285,-4.1297,-4.1326,-4.1353,-4.1373,-4.1424,-4.1415,-4.1438,-4.1422,-4.1483,-4.1426,-4.1432,-4.1422,-4.1419,-4.1423,-4.1494,-4.1496,-4.1498,-4.1499,0,-4.1324,-4.1315,-4.134,-4.1362,-4.1383,-4.1399,-4.1412,-4.143,-4.1404,-4.1426,-4.1457,-4.1473,-4.1505,-4.1532,-4.1552,-4.1553,-4.1522,-4.1518,-4.1531,-4.1538,-4.1543,-4.154,-4.1357,-4.1513,-4.1512,-4.1511,-4.151,-4.151,-4.143,-4.1462,-4.1469,-4.1498,-4.1505,-4.1519,-4.1547,-4.1541,-4.1567,-4.1591,-4.1574,-4.1611,-4.1617,-4.164,-4.1645,-4.1673,-4.1648,-4.1667,-4.1671,-4.1676,-4.1683,-4.1541,-4.1677,-4.1676,-4.1676,-4.1676,-4.1675,0,-4.157,-4.1572,-4.16,-4.1619,-4.1642,-4.1613,-4.1626,-4.1646,-4.1679,-4.1688,-4.171,-4.1745,-4.1771,-4.1765,-4.1788,-4.1812,-4.1798,-4.1819,-4.1816,-4.1816,-4.1704,-4.169,-4.1829,-4.1829,-4.1829,-4.1829,-4.1829,-4.1829,-4.1645,-4.1698,-4.1689,-4.1745,-4.1747,-4.1783,-4.1793,-4.1805,-4.1812,-4.1853,-4.1875,-4.1871,-4.1874,-4.1897,-4.192,-4.1917,-4.1927,-4.1953,-4.1945,-4.184,-4.1824,-4.181,-4.1796,-4.1955,-4.1955,-4.2054,-4.2055,-4.2056]},{"header":{"parameterUnit":"m.s-1","parameterCategory":1,"la1":30.2991,"la2":30.254,"lo1":-89.0895,"lo2":-89.0444,"dx":0.0017,"dy":0.0017,"nx":28,"ny":28,"refTime":"2022-12-29T15:00:00:Z","depth":0,"parameterNumber":3,"parameterNumberName":"V-component_of_WINDS"},"data":[0,0,0,0,0,0,0,0,0,0,0,0,0,0,0,0,0,0,0,0,0,0,0,0,0,0,0,0,0,0,0,0,0,0,0,0,0,0,0,0,0,0,0,0,0,0,0,0,0,0,0,0,0,0,0,0,0,0,0.7304,0.7304,0,0.7273,0.7273,0.7273,0.7269,0.727,0.727,0.727,0.7235,0.7234,0.7233,0,0,0,0,0,0,0,0,0,0,0,0,0,0.736,0.7359,0.7305,0.7304,0.7304,0.7273,0.7273,0.7272,0.7269,0.727,0.727,0.7271,0.7235,0.7234,0.7232,0,0,0,0,0,0,0,0,0,0,0,0,0,0.7333,0.7358,0.7305,0.7299,0.7298,0.7273,0.7273,0.7272,0.7269,0.727,0.727,0.7271,0.7236,0.7234,0.7232,0.7211,0,0,0.7226,0.7226,0,0,0,0,0,0,0,0,0.7334,0.7331,0.73,0.7299,0.7298,0.7276,0.7279,0.7252,0.7269,0.728,0.727,0.7271,0.7248,0.7245,0.7238,0.7209,0.7207,0.7226,0.7225,0.7224,0.7224,0,0,0,0,0,0,0,0.7336,0.7332,0.7292,0.7299,0.7298,0.7297,0.7294,0.7274,0.7261,0.7279,0.7279,0.7275,0.7247,0.724,0.7237,0.7207,0.7226,0.7225,0.7224,0.7223,0.7161,0.716,0,0,0,0,0,0,0.734,0.7334,0.7293,0.7291,0.7318,0.7296,0.7292,0.7282,0.7262,0.7259,0.7275,0.7275,0.7243,0.7239,0.7236,0.7211,0.7224,0.7223,0.7222,0.7161,0.7161,0.716,0,0,0,0,0,0,0.7341,0.7336,0.7294,0.7312,0.7307,0.7294,0.7283,0.7281,0.7274,0.7259,0.7256,0.727,0.7243,0.7239,0.7218,0.721,0.7222,0.722,0.7162,0.7161,0.716,0.716,0,0,0,0,0,0,0.7342,0.7336,0.7328,0.7312,0.7306,0.7277,0.7283,0.7281,0.7271,0.7271,0.7253,0.725,0.7243,0.7221,0.7216,0.7207,0.7219,0.7163,0.7162,0.7161,0.716,0.7159,0.7158,0,0,0,0,0,0.7344,0.7328,0.7328,0.7323,0.7296,0.7277,0.7273,0.7266,0.727,0.7262,0.7253,0.7251,0.7211,0.7218,0.7213,0.7204,0.7163,0.7162,0.7161,0.7161,0.7159,0.7158,0,0,0,0,0,0,0.7342,0.7326,0.7325,0.7304,0.7292,0.7276,0.7265,0.7264,0.725,0.725,0.7241,0.7237,0.7217,0.7208,0.7217,0.7183,0.7188,0.7185,0.7189,0.7188,0.7186,0.7189,0.7217,0,0,0,0,0,0.7339,0.7326,0.7312,0.7294,0.7288,0.7278,0.7269,0.7265,0.7252,0.7247,0.7235,0.7222,0.7207,0.7197,0.7181,0.7159,0.7156,0.715,0.7149,0.7148,0.7146,0.7135,0.7133,0.7156,0.7156,0.7156,0,0,0.7332,0.7322,0.7314,0.7293,0.7284,0.727,0.7274,0.7258,0.7248,0.7244,0.7224,0.7216,0.72,0.7179,0.7169,0.7171,0.7139,0.7146,0.7146,0.7144,0.7134,0.7132,0.713,0.7156,0.7156,0.7156,0,0,0.7314,0.7304,0.7289,0.728,0.7266,0.726,0.7256,0.7241,0.7236,0.7217,0.7214,0.7201,0.7175,0.7164,0.7156,0.7136,0.7134,0.7131,0.7124,0.7113,0.7112,0.711,0.7104,0.7102,0.7129,0.7129,0.7129,0,0.7307,0.7287,0.7281,0.7267,0.7258,0.7256,0.7241,0.7232,0.7213,0.7207,0.721,0.7178,0.7167,0.7145,0.714,0.7133,0.7129,0.7133,0.7112,0.7111,0.7109,0.7103,0.7101,0.7129,0.7129,0.7129,0.7129,0,0.728,0.7266,0.7255,0.724,0.723,0.7215,0.7207,0.7198,0.7195,0.7189,0.717,0.7157,0.714,0.7134,0.7131,0.7112,0.7114,0.7114,0.7119,0.7107,0.7101,0.7099,0.7128,0.7129,0.7129,0.7129,0,0,0.7257,0.7241,0.7237,0.7231,0.7216,0.7205,0.719,0.7176,0.7168,0.7156,0.7144,0.7122,0.7124,0.7114,0.7109,0.71,0.7087,0.7102,0.7102,0.7101,0.7066,0.7066,0.7064,0.7086,0.7085,0.7085,0.7068,0,0.7238,0.7213,0.7209,0.7187,0.7175,0.7174,0.7161,0.7151,0.7145,0.7133,0.7125,0.7111,0.7114,0.7108,0.7099,0.7091,0.708,0.7092,0.7074,0.7074,0.7079,0.7061,0.706,0.7044,0.7066,0.7065,0.7065,0,0.7211,0.7201,0.7178,0.7167,0.7162,0.7151,0.7138,0.7127,0.7115,0.7112,0.7102,0.7099,0.7084,0.709,0.7069,0.7077,0.707,0.7065,0.7064,0.7062,0.7069,0.7059,0.7039,0.7037,0.7061,0.7062,0.7062,0,0.7199,0.7178,0.7163,0.7157,0.7144,0.7136,0.713,0.7119,0.7111,0.71,0.7095,0.7081,0.7073,0.7063,0.7056,0.7061,0.7037,0.7041,0.7033,0.7034,0.7028,0.7028,0.7008,0.7023,0.7023,0.7023,0.7023,0,0.7178,0.7164,0.7157,0.7148,0.7133,0.7128,0.7114,0.7107,0.7098,0.7087,0.7085,0.7075,0.7066,0.7055,0.705,0.7034,0.703,0.7027,0.7026,0.7028,0.7028,0.7023,0.7024,0.7022,0.7022,0.7022,0.7023,0,0.7161,0.7156,0.7139,0.7129,0.7126,0.7115,0.7106,0.7097,0.7091,0.7078,0.7074,0.7065,0.7052,0.7045,0.7027,0.7024,0.7007,0.7006,0.7011,0.7011,0.7003,0.7005,0.6979,0.6975,0.6992,0.6992,0.6992,0,0.7148,0.7138,0.7127,0.7121,0.7115,0.7104,0.7096,0.7092,0.7084,0.7071,0.7064,0.7051,0.704,0.7019,0.701,0.6998,0.6997,0.6988,0.6994,0.6997,0.6997,0.6998,0.6998,0.6987,0.6987,0.6987,0.6987,0,0.7126,0.7125,0.7115,0.7104,0.7096,0.7087,0.7078,0.7072,0.7066,0.7058,0.7045,0.7037,0.7021,0.7008,0.6995,0.6988,0.6986,0.6985,0.6983,0.6985,0.6989,0.6987,0.7009,0.6986,0.6986,0.6986,0.6986,0.6986,0.7112,0.7103,0.7095,0.7084,0.7078,0.707,0.7061,0.7056,0.7046,0.7033,0.7031,0.7017,0.7008,0.699,0.6983,0.6973,0.6974,0.697,0.6969,0.6969,0.6969,0.699,0.697,0.697,0.697,0.697,0.697,0,0.709,0.7086,0.7076,0.7065,0.7057,0.7057,0.7048,0.7041,0.703,0.7021,0.7012,0.6998,0.6986,0.6978,0.6966,0.6959,0.6958,0.6956,0.6956,0.6955,0.6968,0.6972,0.6957,0.6957,0.6957,0.6957,0.6957,0.6957,0.7079,0.7065,0.7063,0.7047,0.7041,0.703,0.7025,0.7018,0.7011,0.6996,0.6987,0.6982,0.6974,0.6962,0.6951,0.6949,0.6945,0.6943,0.694,0.6952,0.6954,0.6955,0.6959,0.6942,0.6942,0.6929,0.6929,0.6928]}]]